Погода в Дюрском

Россия / Саратовская область     50°39′53″N   48°34′09″E
темп.,
°C
ветер,
м/с
пор.,
м/с
влажн.,
%
обл.,
%
осадки,
мм/ч
давл.,
гПа
погр.,
м
2 августа, пн
пн201:00+25всв46406 0.0 101381
04:00+24всв444523 0.0 101352
07:00+27в363830 0.0 1013151
10:00+34вюв332313 0.0 1013695
13:00+37ююв241763 0.0 10123822
16:00+35сз772079 0.0 1011361
19:00+35ссв232034 0.0 101090
22:00+27всв113336 0.0 101111
3 августа, вт
вт301:00+28зсз3331100 0.0 101113
04:00+25ююз113996 0.0 101111
07:00+28юз36375 0.0 1012161
10:00+36ююз451938 0.0 1011990
13:00+39зюз6812100 0.0 10114621
16:00+39зюз671181 0.0 10094503
19:00+37зюз47135 0.0 1009219
22:00+28ссв6123399 0.0 1010234
4 августа, ср
ср401:00+26св594196 0.0 1010143
04:00+26ююв34288 0.0 100940
07:00+25сз343899 0.0 101098
10:00+33зюз232482 0.0 1010510
13:00+35сз972327 0.0 10111472
16:00+35сз4523100 0.0 10101680
19:00+32з6930100 0.0 1011814
22:00+27сз51047100 0.0 1012369
5 августа, чт
чт501:00+25с595882 0.0 1012301
04:00+23сз336651 0.0 101349
07:00+22с697686 0.0 1013330
10:00+27с6652100 0.0 1013974
13:00+30с663869 0.0 10132009
16:00+31ссз65307 0.0 10122639
19:00+29ссз7631100 0.0 10131903
22:00+23ссз511384 0.0 1014229
6 августа, пт
пт601:00+21ссз511470 0.0 1014230
04:00+19с48585 0.0 1014150
07:00+21с585683 0.0 1015246
10:00+27с66380 0.0 10151187
13:00+30с77250 0.0 10142265
16:00+30с77240 0.0 10132498
19:00+29с77250 0.0 10142073
22:00+23с512347 0.0 1015235